Probability
0 0 0 0 0 0 0 0 0 0 0 0 0 0 0 0 0 0 0 0 0 0 0 0 0 0 0 0 0 0 0 0 0 0 0 0 0 0 0 0 0 0 0 0
0 0 0 0 0 0 0 0 0 0 0 0 0 0 0 0 0 0 0 0 0 0 0 0 0 0 0 0 0 0 0 0 0 0 0 0 0 0 0 0 0 0 0 0
0 0 0 0 0 0 0 0 0 0 0 0 0 0 0 0 0 0 0 0 0 0 0 0 0 0 0 0 0 0 0 0 0 0 0 0 0 0 0 0 0 0 0 0
0 0 0 0 0 0 0 0 0 0 0 0 0 0 0 0 0 0 0 0 0 0 0 0 0 0 0 0 0 0 0 0 0 0 0 0 0 0 0 0 0 0 0 0
0 0 0 0 0 0 0 0 0 0 0 0 0 0 0 0 0 0 0 0 0 0 0 0 0 0 0 0 0 0 0 0 0 0 0 0 0 0 0 0 0 0 0 0
0 0 0 0 0 0 0 0 0 0 0 0 0 0 0 0 0 0 0 0 0 0 0 0 0 0 0 0 0 0 0 0 0 0 0 0 0 0 0 0 0 0 0 0
0 0 0 0 0 0 0 0 0 0 0 0 0 0 0 0 0 0 0 0 0 0 0 0 0 0 0 0 0 0 0 0 0 0 0 0 0 0 0 0 0 0 0 0
0 0 0 0 0 0 0 0 0 0 0 0 0 0 0 0 0 0 0 0 0 0 0 0 0 0 0 0 0 0 0 0 0 0 0 0 0 0 0 0 0 0 0 0
0 0 0 0 0 0 0 0 0 0 0 0 0 0 0 0 0 0 0 0 0 0 0 0 0 0 0 0 0 0 0 0 0 0 0 0 0 0 0 0 0 0 0 0
0 0 0 0 0 0 0 0 0 0 0 0 0 0 0 0 0 0 0 0 0 0 0 0 0 0 0 0 0 0 0 0 0 0 0 0 0 0 0 0 0 0 0 0
0 0 0 0 0 0 0 0 0 0 0 0 0 0 0 0 0 0 0 0 0 0 0 0 0 0 0 0 0 0 0 0 0 0 0 0 0 0 0 0 0 0 0 0
0 0 0 0 0 0 0 0 0 0 0 0 0 0 0 0 0 0 0 0 0 0 0 0 0 0 0 0 0 0 0 0 0 0 0 0 0 0 0 0 0 0 0 0
0 0 0 0 0 0 0 0 0 0 0 0 0 0 0 0 0 0 0 0 0 0 0 0 0 0 0 0 0 0 0 0 0 0 0 0 0 0 0 0 0 0 0 0
0 0 0 0 0 0 0 0 0 0 0 0 0 0 0 0 0 0 0 0 0 0 0 0 0 0 0 0 0 0 0 0 0 0 0 0 0 0 0 0 0 0 0 0
0 0 0 0 0 0 0 0 0 0 0 0 0 0 0 0 0 0 0 0 0 0 0 0 0 0 0 0 0 0 0 0 0 0 0 0 0 0 0 0 0 0 0 0
0 0 0 0 0 0 0 0 0 0 0 0 0 0 0 0 0 0 0 0 0 0 0 0 0 0 0 0 0 0 0 0 0 0 0 0 0 0 0 0 0 0 0 0
0 0 0 0 0 0 0 0 0 0 0 0 0 0 0 0 0 0 0 0 0 0 0 0 0 0 0 0 0 0 0 0 0 0 0 0 0 0 0 0 0 0 0 0
0 0 0 0 0 0 0 0 0 0 0 0 0 0 0 0 0 0 0 0 0 0 0 0 0 0 0 0 0 0 0 0 0 0 0 0 0 0 0 0 0 0 0 0
0 0 0 0 0 0 0 0 0 0 0 0 0 0 0 0 0 0 0 0 0 0 0 0 0 0 0 0 0 0 0 0 0 0 0 0 0 0 0 0 0 0 0 0
0 0 0 0 0 0 0 0 0 0 0 0 0 0 0 0 0 0 0 0 0 0 0 0 0 0 0 0 0 0 0 0 0 0 0 0 0 0 0 0 0 0 0 0
0 0 0 0 0 0 0 0 0 0 0 0 0 0 0 0 0 0 0 0 0 0 0 0 0 0 0 0 0 0 0 0 0 0 0 0 0 0 0 0 0 0 0 0
0 0 0 0 0 0 0 0 0 0 0 0 0 0 0 0 0 0 0 0 0 0 0 0 0 0 0 0 0 0 0 0 0 0 0 0 0 0 0 0 0 0 0 0
0 0 0 0 0 0 0 0 0 0 0 0 0 0 0 0 0 0 0 0 0 0 0 0 0 0 0 0 0 0 0 0 0 0 0 0 0 0 0 0 0 0 0 0
0 0 0 0 0 0 0 0 0 0 0 0 0 0 0 0 0 0 0 0 0 0 0 0 0 0 0 0 0 0 0 0 0 0 0 0 0 0 0 0 0 0 0 0
0 0 0 0 0 0 0 0 0 0 0 0 0 0 0 0 0 0 0 0 0 0 0 0 0 0 0 0 0 0 0 0 0 0 0 0 0 0 0 0 0 0 0 0
0 0 0 0 0 0 0 0 0 0 0 0 0 0 0 0 0 0 0 0 0 0 0 0 0 0 0 0 0 0 0 0 0 0 0 0 0 0 0 0 0 0 0 0
0 0 0 0 0 0 0 0 0 0 0 0 0 0 0 0 0 0 0 0 0 0 0 0 0 0 0 0 0 0 0 0 0 0 0 0 0 0 0 0 0 0 0 0
Height
5810 5810 5810 5810 5810 5810 5810 5810 5810 5811 5812 5813 5812 5813 5814 5816 5817 5818 5819 5820 5820 5820 5820 5820 5819 5818 5817 5815 5813 5811 5808 5806 5803 5800 5797 5794 5791 5788 5785 5783 5780 5776 5773 5770
5806 5806 5805 5806 5806 5806 5806 5806 5806 5807 5808 5808 5809 5810 5811 5812 5814 5815 5816 5816 5817 5817 5817 5817 5816 5815 5814 5813 5811 5809 5806 5804 5801 5798 5796 5793 5790 5787 5784 5781 5778 5775 5772 5769
5802 5801 5801 5802 5803 5801 5801 5802 5803 5803 5805 5805 5806 5807 5808 5809 5810 5811 5812 5813 5814 5814 5814 5814 5813 5812 5811 5810 5808 5806 5804 5802 5799 5797 5794 5791 5788 5785 5782 5779 5776 5773 5770 5767
5797 5797 5797 5801 5798 5798 5797 5798 5799 5799 5800 5801 5802 5803 5804 5805 5806 5807 5809 5809 5810 5810 5810 5810 5810 5809 5808 5807 5805 5804 5802 5799 5797 5794 5791 5789 5786 5782 5779 5776 5773 5770 5767 5764
5792 5791 5793 5795 5793 5793 5793 5795 5795 5795 5797 5797 5798 5799 5800 5801 5802 5803 5804 5805 5805 5806 5806 5806 5805 5805 5804 5803 5802 5801 5799 5796 5794 5792 5789 5786 5783 5780 5776 5773 5770 5766 5763 5761
5786 5786 5788 5791 5788 5787 5789 5791 5790 5790 5792 5792 5794 5795 5796 5797 5798 5799 5799 5800 5801 5801 5801 5801 5801 5801 5800 5800 5798 5797 5795 5793 5791 5788 5786 5783 5780 5776 5773 5770 5766 5763 5760 5757
5780 5780 5782 5784 5782 5783 5785 5786 5785 5785 5786 5787 5788 5790 5791 5792 5793 5793 5794 5795 5795 5796 5796 5796 5796 5796 5796 5795 5794 5793 5791 5789 5787 5785 5782 5779 5776 5773 5770 5766 5763 5760 5757 5754
5773 5774 5778 5777 5776 5777 5777 5778 5778 5778 5779 5781 5782 5783 5784 5786 5787 5788 5788 5789 5790 5790 5790 5791 5791 5791 5791 5790 5789 5788 5787 5785 5783 5781 5778 5775 5772 5769 5766 5763 5759 5756 5753 5751
5766 5769 5769 5768 5768 5768 5769 5771 5771 5772 5773 5774 5775 5776 5777 5779 5780 5781 5782 5783 5783 5784 5784 5785 5785 5785 5785 5785 5784 5783 5782 5780 5778 5776 5774 5771 5768 5765 5761 5758 5755 5752 5749 5746
5755 5758 5759 5759 5759 5759 5761 5762 5763 5764 5765 5767 5768 5769 5770 5771 5773 5774 5775 5775 5776 5777 5778 5778 5779 5779 5779 5779 5778 5777 5776 5775 5773 5771 5768 5766 5763 5760 5757 5754 5751 5747 5744 5742
5743 5746 5747 5748 5749 5749 5751 5752 5753 5755 5756 5758 5759 5761 5762 5763 5764 5766 5767 5768 5769 5770 5770 5771 5772 5772 5772 5772 5771 5771 5770 5768 5767 5765 5763 5760 5758 5755 5752 5749 5745 5742 5739 5736
5730 5733 5732 5736 5738 5738 5740 5741 5743 5744 5746 5748 5750 5752 5753 5754 5755 5757 5758 5760 5761 5762 5763 5763 5764 5764 5764 5764 5764 5764 5763 5762 5760 5759 5757 5754 5752 5749 5746 5743 5740 5737 5733 5730
5715 5717 5718 5722 5725 5726 5727 5729 5731 5733 5735 5738 5740 5742 5743 5745 5746 5748 5749 5751 5752 5753 5754 5755 5756 5756 5756 5756 5756 5756 5755 5754 5753 5751 5749 5747 5745 5742 5739 5737 5733 5730 5727 5724
5699 5700 5703 5706 5709 5712 5713 5716 5718 5721 5724 5726 5729 5731 5733 5734 5736 5738 5740 5741 5742 5744 5745 5746 5747 5747 5748 5748 5748 5748 5747 5746 5745 5744 5742 5740 5737 5734 5732 5729 5726 5723 5720 5717
5682 5683 5685 5689 5692 5695 5698 5701 5704 5707 5711 5714 5716 5719 5721 5723 5726 5727 5729 5730 5732 5734 5735 5736 5737 5738 5739 5739 5739 5739 5738 5738 5737 5735 5734 5731 5729 5726 5724 5721 5718 5714 5712 5709
5665 5666 5667 5670 5674 5678 5681 5684 5688 5692 5696 5699 5703 5706 5708 5711 5713 5715 5717 5719 5721 5723 5724 5726 5727 5728 5729 5729 5729 5729 5729 5728 5727 5726 5724 5722 5720 5718 5715 5712 5709 5706 5703 5700
5645 5647 5649 5651 5654 5659 5663 5667 5670 5675 5679 5684 5688 5691 5693 5696 5699 5702 5705 5707 5709 5711 5713 5715 5716 5717 5718 5718 5719 5719 5719 5718 5717 5716 5714 5712 5710 5708 5705 5702 5699 5696 5693 5690
5625 5628 5630 5633 5636 5640 5644 5648 5652 5657 5662 5667 5671 5675 5678 5682 5686 5689 5691 5694 5696 5698 5701 5703 5704 5705 5706 5707 5707 5708 5707 5707 5706 5705 5703 5701 5699 5697 5694 5691 5688 5685 5682 5679
5608 5610 5612 5615 5618 5621 5626 5630 5635 5639 5644 5649 5654 5658 5663 5667 5670 5673 5676 5679 5682 5685 5688 5689 5691 5692 5694 5695 5695 5696 5695 5695 5694 5693 5691 5689 5687 5685 5682 5679 5677 5673 5670 5667
5592 5593 5595 5598 5601 5604 5608 5612 5617 5622 5626 5631 5636 5641 5646 5650 5654 5658 5661 5664 5668 5671 5673 5675 5678 5679 5681 5682 5682 5683 5683 5682 5681 5680 5679 5677 5675 5672 5670 5667 5664 5661 5658 5655
5577 5578 5580 5582 5585 5588 5591 5595 5600 5605 5609 5614 5619 5624 5629 5634 5638 5642 5645 5649 5653 5655 5658 5661 5663 5665 5667 5668 5669 5669 5669 5669 5668 5667 5665 5664 5662 5659 5656 5654 5651 5648 5644 5641
5563 5564 5565 5567 5570 5573 5576 5579 5583 5588 5593 5597 5602 5607 5612 5617 5621 5625 5629 5633 5636 5639 5643 5646 5648 5650 5652 5653 5654 5655 5655 5655 5654 5653 5652 5650 5648 5645 5643 5640 5637 5634 5631 5628
5550 5551 5552 5554 5556 5558 5561 5564 5568 5572 5576 5581 5586 5591 5596 5601 5605 5609 5613 5617 5620 5624 5628 5631 5633 5635 5637 5638 5639 5640 5640 5640 5640 5639 5637 5636 5634 5631 5629 5626 5623 5621 5618 5615
5538 5539 5539 5540 5542 5545 5548 5550 5554 5557 5561 5566 5570 5575 5579 5584 5589 5593 5597 5601 5605 5609 5612 5615 5618 5620 5622 5623 5624 5625 5625 5625 5625 5624 5623 5621 5619 5617 5615 5613 5610 5607 5604 5601
5527 5527 5528 5529 5530 5532 5535 5537 5540 5544 5547 5551 5555 5560 5564 5568 5573 5577 5581 5585 5590 5594 5597 5600 5603 5605 5606 5608 5609 5610 5610 5610 5610 5609 5608 5607 5605 5603 5601 5599 5596 5594 5591 5588
5516 5516 5517 5517 5518 5520 5522 5525 5528 5531 5534 5538 5542 5546 5550 5554 5558 5563 5567 5571 5575 5579 5582 5585 5587 5589 5591 5592 5594 5594 5595 5595 5595 5594 5593 5592 5591 5589 5587 5585 5583 5580 5578 5575
5504 5505 5506 5507 5508 5509 5511 5513 5516 5519 5522 5525 5528 5532 5536 5540 5544 5548 5552 5556 5560 5563 5567 5569 5572 5574 5576 5577 5578 5579 5580 5580 5580 5580 5579 5578 5577 5575 5574 5572 5570 5567 5564 5562
Wind_Speed
17 18 18 17 17 18 16 15 14 12 12 14 16 16 16 15 14 13 11 10 9 8 8 8 9 10 11 12 13 14 15 15 16 16 16 16 16 16 16 16 16 16 16 16
18 18 18 16 16 17 16 15 15 13 12 16 17 17 16 15 15 14 12 11 10 10 9 9 9 10 11 12 13 14 14 15 16 17 17 17 17 17 17 17 17 16 16 16
19 19 19 15 15 17 16 15 15 14 14 16 16 17 17 16 16 15 14 13 12 11 11 10 10 11 11 12 13 14 14 15 16 17 17 18 18 18 19 18 17 17 16 16
20 19 19 15 16 17 16 15 16 15 15 16 17 18 17 17 16 16 15 14 14 13 12 12 11 12 12 12 13 14 14 15 16 17 18 19 19 19 20 19 19 17 16 16
21 20 17 16 18 18 17 14 16 16 16 17 18 18 18 18 18 17 16 16 15 14 14 13 13 13 13 13 14 14 15 16 17 18 19 20 20 20 21 20 19 18 17 16
22 22 19 16 19 19 18 14 17 18 18 18 19 19 19 20 19 18 18 18 17 16 15 15 14 14 14 14 14 15 15 16 17 18 20 21 21 21 21 21 20 19 18 17
24 24 20 18 21 20 19 17 19 20 20 20 20 21 21 21 20 20 20 19 19 18 17 16 16 15 15 15 15 16 16 17 18 19 20 21 22 22 22 21 21 19 19 19
27 26 22 22 22 22 22 22 23 23 23 22 22 23 23 22 22 22 21 21 20 19 19 18 17 17 17 17 17 17 17 18 18 20 21 22 22 22 22 22 21 20 20 19
31 28 27 26 26 26 25 25 26 26 25 25 24 24 24 24 24 23 23 22 22 21 21 20 19 19 19 19 18 18 18 18 19 20 21 22 23 23 23 23 22 22 21 21
35 33 32 31 30 30 29 28 28 29 28 27 27 27 26 26 26 25 25 24 23 23 22 22 21 21 21 20 20 20 19 20 20 21 22 23 24 24 24 24 23 23 23 23
41 38 37 36 36 35 34 32 32 32 31 30 29 29 29 28 27 27 26 26 25 25 25 24 23 23 23 22 22 21 21 21 21 22 23 24 25 25 25 25 25 25 24 24
45 43 44 42 40 40 39 37 36 36 35 33 32 31 31 31 30 29 29 28 27 27 26 26 25 25 24 24 23 23 23 23 23 24 25 26 26 27 26 26 26 26 26 25
49 48 49 47 44 44 44 42 41 40 39 37 35 34 34 33 33 32 31 30 29 29 28 28 27 27 26 26 25 25 25 25 26 26 27 27 28 28 29 28 28 27 27 26
52 52 52 51 50 49 48 47 46 44 42 40 38 37 36 35 35 34 33 32 32 31 31 30 29 29 28 28 28 27 27 27 28 28 28 29 30 30 31 31 30 30 29 28
53 54 54 54 53 52 52 51 50 48 45 43 41 40 39 38 37 36 36 35 35 34 33 32 32 31 31 30 30 30 30 30 30 30 31 31 32 32 33 33 33 32 32 31
53 54 55 56 55 55 55 54 54 51 49 47 45 43 42 41 40 40 39 39 38 37 36 36 35 34 33 33 32 32 32 32 33 33 33 34 34 34 35 35 35 34 34 34
54 54 54 56 56 56 56 56 56 55 53 51 49 47 46 46 45 43 42 41 41 40 40 39 38 37 36 35 35 35 35 35 35 35 36 36 36 37 37 37 37 37 36 36
54 54 54 54 55 55 56 56 56 55 55 53 52 51 50 49 47 46 45 45 44 44 42 41 41 40 39 39 38 38 38 38 38 38 38 39 39 39 39 39 39 39 39 38
52 52 51 51 53 53 53 54 55 55 54 55 54 53 53 52 51 50 50 49 48 46 45 45 44 43 42 42 41 41 41 41 41 41 41 41 42 42 42 42 42 42 41 41
48 49 49 48 49 51 51 52 53 54 54 54 55 55 54 54 53 53 52 52 51 50 49 49 47 46 46 45 45 44 44 43 43 43 44 44 45 45 45 45 44 44 43 43
47 47 47 47 47 48 49 50 51 52 52 52 53 55 55 54 55 55 55 55 54 54 53 52 51 50 49 48 48 47 47 46 46 47 47 47 47 47 47 47 46 45 44 44
44 43 44 45 45 45 45 47 48 49 50 51 52 54 56 56 56 57 57 57 57 57 56 54 53 53 52 51 50 50 49 49 49 49 49 49 49 49 48 47 46 46 45 44
41 41 42 44 45 43 43 45 46 48 50 50 51 52 54 56 57 57 58 58 58 58 57 56 55 54 54 53 53 52 52 51 51 51 51 51 50 49 48 47 47 46 45 44
39 40 41 42 43 43 42 43 44 45 48 50 51 52 53 55 58 58 58 59 59 58 57 56 56 55 55 54 54 53 53 53 52 52 51 51 50 49 48 47 47 46 45 44
39 39 39 40 41 42 42 42 42 43 44 47 50 51 52 53 55 56 58 58 58 57 57 56 56 56 56 55 55 54 53 52 52 51 51 50 49 49 48 47 46 45 45 44
37 36 36 36 37 38 39 40 40 40 40 42 45 48 50 51 52 53 53 54 55 55 55 55 55 55 55 54 53 53 52 52 51 50 50 49 48 47 47 46 45 45 45 44
35 33 32 32 32 33 34 35 37 37 39 40 40 43 46 48 50 50 50 50 51 52 52 53 53 53 52 51 51 51 50 50 49 48 48 47 46 46 45 45 45 45 45 45
Wind_Direction
267 265 264 263 264 266 267 268 264 256 249 238 233 232 231 230 230 232 235 241 250 263 279 296 310 321 331 338 342 345 348 351 353 354 354 355 354 352 352 351 349 349 349 350
269 269 267 264 263 264 264 263 260 252 242 238 234 233 233 233 233 235 237 243 251 261 274 288 301 312 323 331 337 342 345 348 350 351 351 351 351 349 346 345 344 343 343 343
271 269 270 267 264 264 265 260 258 251 240 238 236 235 234 234 235 237 241 245 251 260 270 282 293 304 314 324 332 337 341 345 348 350 350 349 347 346 344 340 338 337 336 336
272 269 268 268 265 266 265 261 258 250 242 241 239 237 237 237 238 241 245 249 254 260 268 277 287 296 306 315 323 330 335 340 344 346 347 346 345 344 342 340 336 334 332 331
273 271 270 268 266 264 263 258 257 251 245 244 243 241 241 241 243 246 250 253 256 261 267 274 282 290 298 307 315 322 328 334 338 340 341 342 342 341 340 339 337 333 330 328
272 271 270 267 264 262 261 256 253 251 247 246 246 245 245 245 247 250 253 255 257 260 265 272 278 284 290 298 306 314 321 327 331 334 337 338 338 338 338 337 336 333 329 327
269 269 269 266 263 262 259 251 248 249 249 248 249 248 248 249 251 252 254 255 257 260 265 270 274 279 284 291 299 307 313 319 324 329 332 334 335 336 336 335 333 331 328 326
266 266 267 262 261 259 256 252 250 249 248 249 249 250 251 252 253 253 254 255 257 260 264 267 271 275 279 285 292 299 306 312 318 324 329 331 332 332 333 332 331 329 327 323
262 262 261 259 258 257 254 251 250 250 248 249 249 251 252 253 253 253 254 255 257 259 263 265 268 271 275 280 286 292 299 306 313 319 324 327 328 329 329 328 327 326 324 321
259 257 256 255 255 255 253 250 249 250 249 249 249 250 251 252 253 253 254 255 256 259 261 263 265 268 271 276 281 287 294 301 308 314 319 322 324 325 326 325 324 322 321 318
258 256 254 252 252 252 251 250 249 249 249 249 249 250 251 251 252 253 254 254 255 257 259 261 263 266 269 273 278 284 290 296 302 308 313 316 319 321 323 323 322 321 319 316
256 254 253 251 251 251 250 249 248 248 248 248 248 248 249 250 251 252 253 253 254 256 258 259 262 265 268 272 276 281 286 292 297 302 307 311 314 316 318 319 319 318 317 314
257 255 253 251 250 250 250 249 248 247 247 247 247 246 247 248 249 250 251 252 253 254 256 258 261 264 267 271 275 279 284 288 293 298 302 306 309 312 314 314 314 314 313 311
258 256 254 252 250 249 249 249 248 247 247 247 246 246 246 246 247 248 249 250 252 253 255 258 261 263 266 270 273 277 281 285 290 294 298 302 305 308 310 311 311 311 310 308
260 258 256 253 251 249 249 249 248 248 247 247 247 246 245 245 246 247 248 249 251 253 255 258 260 262 265 268 272 276 279 283 287 290 294 298 302 304 307 307 307 308 307 306
261 259 257 255 252 250 249 248 248 247 247 246 246 246 246 246 246 246 248 249 251 253 255 257 260 262 265 268 271 274 278 282 285 288 292 295 298 301 303 304 304 304 304 303
262 259 257 255 253 251 249 248 248 247 246 246 245 245 245 246 246 247 249 250 251 253 255 257 260 262 265 267 270 274 277 281 284 287 290 293 296 298 300 301 302 302 301 300
264 261 258 255 254 252 249 247 246 246 245 244 244 244 244 245 246 248 249 250 251 253 255 257 259 262 264 267 270 273 276 280 283 285 288 291 294 296 298 299 299 299 299 297
263 262 259 257 254 252 249 247 246 245 245 244 243 243 244 244 244 246 247 249 251 253 255 256 259 261 264 267 270 273 276 279 281 284 287 289 292 294 296 297 297 297 297 296
262 261 260 258 256 253 250 248 245 244 244 244 243 242 242 243 244 245 247 249 251 252 254 256 258 261 264 267 269 272 275 278 280 283 285 288 290 293 294 295 296 296 296 295
261 260 258 256 255 253 251 248 245 243 242 243 243 242 241 242 243 244 246 248 250 252 254 256 258 261 263 266 269 271 274 277 279 282 285 287 289 291 293 294 295 295 295 294
262 261 259 256 254 252 251 249 246 244 242 241 241 241 241 241 242 244 245 247 249 251 253 256 259 261 263 266 268 271 274 276 279 281 284 286 288 290 291 292 293 294 294 294
264 263 260 257 255 254 252 250 248 245 243 241 241 241 240 240 241 244 246 247 250 252 254 256 259 261 263 266 269 271 273 275 278 280 283 285 287 289 290 291 292 293 293 292
267 266 263 260 257 254 253 252 249 248 245 241 240 240 241 241 242 243 244 246 249 251 254 256 259 261 264 266 268 271 273 275 277 279 282 284 285 287 288 289 291 291 291 291
270 269 267 264 260 257 255 253 251 249 247 244 241 239 240 241 242 244 245 247 249 252 254 257 259 261 263 266 268 270 272 274 276 278 281 282 283 285 286 288 289 290 290 290
270 270 269 267 265 261 256 253 250 248 247 246 243 240 240 242 242 243 244 247 250 252 254 256 258 260 263 265 267 269 270 272 274 277 278 280 282 283 284 286 287 288 289 289
271 269 269 269 267 262 258 254 251 249 247 246 246 244 242 243 244 245 246 247 249 250 252 255 257 259 261 263 264 266 268 271 273 274 276 278 280 281 283 285 286 287 288 289